Welcome to the New NWS' Forecast!
Most changes are behind the scenes, but click here for differences you might notice.
Latest weather observations around

Gadsden, Gadsden Municipal Airport (KGAD)

Using English Units (Switch to International System of Units)
Date/ Time (CDT) Wind (mph) Vis. (mi) Weather Sky Cond. Temp (°F) Rel. Humidity Wind Chill (°F) Heat Index (°F) Pressure Precip. (in)
Air Dwpt 6 hour Altimeter (inHg) Sea level (inHg) 1 hr 3 hr 6 hr
Max Min
Jul 23 01:56   10 Clear CLR 69 69     100%     29.8 29.79      
Jul 23 00:56   10 Clear CLR 70 70     100%     29.8 29.79      
Jul 22 23:56   10 Clear CLR 71 70     96%   72 29.81 29.8      
Jul 22 22:56   10 Partly Cloudy FEW050 SCT110 73 70     90%   74 29.83 29.82      
Jul 22 21:56   10 Clear CLR 76 69     79%   77 29.83 29.82      
Jul 22 20:56   10 Cloudy FEW065 OVC110 77 71     82%   78 29.81 29.8      
Jul 22 19:56   10 Cloudy OVC110 78 70     76%   79 29.8 29.79      
Jul 22 18:56   10 Mostly Cloudy FEW070 BKN110 80 71     74%   84 29.79 29.78 0   0
Notice The following observation data may not be complete
Jul 22 17:56   9 Light Rain FEW035 BKN070 OVC110   72      %     29.77 29.77 0    
Jul 22 15:56   10 Mostly Clear FEW060 86 68     55%   89 29.76 29.74      
Jul 22 14:56   10 Mostly Clear FEW055 86 68     55%   89 29.77 29.76      
Jul 22 13:56   10 Mostly Clear FEW060 88 67     50%   91 29.78 29.77      
Jul 22 12:56   10 Partly Cloudy FEW055 SCT070 88 68     52%   92 29.81 29.8      
Jul 22 11:56   10 Mostly Clear FEW047 86 69     57%   90 29.83 29.82      
Jul 22 10:56   10 Mostly Clear FEW042 85 70     61%   89 29.84 29.83      
Jul 22 09:56   10 Clear CLR 85 71     63%   90 29.84 29.83      
Jul 22 08:56   10 Clear CLR 81 72     74%   85 29.85 29.84      
Jul 22 07:56   10 Clear CLR 77 72     84%   78 29.84 29.84      
Jul 22 06:56   10 Clear CLR 72 71     97%   73 29.84 29.84      
Jul 22 05:56   10 Clear CLR 69 69     100%     29.84 29.83      
Jul 22 04:56   10 Clear CLR 70 70     100%     29.83 29.82      
Jul 22 03:56   10 Mostly Cloudy BKN060 BKN080 71 70     96%   72 29.82 29.81      
Jul 22 02:56   10 Partly Cloudy FEW055 SCT080 70 70     100%     29.82 29.82      
Jul 22 01:56   10 Clear CLR 70 70     100%     29.84 29.83      
Jul 22 00:56   10 Clear CLR 71 71     100%   73 29.85 29.83      
Jul 21 23:56   10 Clear CLR 72 71     97%   73 29.86 29.85      
Jul 21 22:56   10 Clear CLR 75 71     88%   76 29.85 29.84      
Jul 21 21:56   10 Clear CLR 80 69     69%   83 29.86 29.84      
Jul 21 20:56   10 Clear CLR 81 70     69%   84 29.84 29.83      
Jul 21 19:56   10 Mostly Clear FEW060 84 72     67%   90 29.82 29.81      
Jul 21 18:56   10 Clear CLR 88 71     57%   94 29.81 29.8      
Jul 21 17:56   10 Clear CLR 91 71     52%   98 29.79 29.78      
Jul 21 16:56   10 Clear CLR 93 73     52%   102 29.8 29.78      
Jul 21 16:08   10 Mostly Cloudy BKN049 93 75     56%   105 29.8        
Jul 21 15:56   10 Mostly Cloudy FEW038 BKN049 93 79     64%   110 29.8 29.79      
Jul 21 15:53   10 Mostly Cloudy FEW038 BKN049 91 79     67%   108 29.81        
Jul 21 14:56   10 Partly Cloudy FEW050 SCT065 90 78     68%   105 29.82 29.8      
Jul 21 13:56   10 Mostly Cloudy SCT040 BKN060 88 78     73%   102 29.83 29.82      
Jul 21 12:56   10 Clear CLR 86 77     75%   97 29.84 29.83     0
Jul 21 11:56   10 Clear CLR 83 75     77%   90 29.87 29.86      
Jul 21 10:56   10 Partly Cloudy SCT032 81 74     79%   86 29.9 29.9      
Jul 21 09:56   10 Partly Cloudy FEW034 SCT049 78 72     82%   79 29.92 29.91   0  
Jul 21 08:56   10 Mostly Clear FEW041 74 70     87%   75 29.93 29.92 0    
Jul 21 08:27   10 Mostly Cloudy FEW041 SCT049 BKN070 72 70     94%   73 29.95   0    
Jul 21 07:56   10 Thunderstorms and Rain SCT050 SCT095 72 71     97%   73 29.96 29.96 0    
Jul 21 07:34   9 Light Rain FEW021 BKN043 OVC050 70 70     100%     29.96   0    
Jul 21 06:56   10 Cloudy FEW016 SCT022 OVC034 71 68     90%   72 29.95 29.94 0   0
Jul 21 06:36   10 Light Rain SCT016 BKN022 OVC034 73 68     83%   74 29.95   0    
Jul 21 05:56   10 Clear CLR 76 76     100%   78 29.9 29.89      
Jul 21 05:35   10 Partly Cloudy SCT027 75 75     100%   77 29.89        
Jul 21 05:19   10 Mostly Cloudy BKN027 BKN048 75 75     100%   77 29.89        
Jul 21 04:56   10 Mostly Cloudy BKN050 77 76     96%   79 29.89 29.88      
Jul 21 04:06   10 Partly Cloudy SCT028 77 75     94%   79 29.87        
Jul 21 03:56   10 Mostly Cloudy BKN028 77 76     96%   79 29.86 29.85      
Jul 21 03:42   10 Mostly Cloudy BKN028 77 75     94%   79 29.86        
Jul 21 02:56   10 Cloudy BKN032 OVC040 77 77     100%   79 29.87 29.86      
Jul 21 01:56   10 Partly Cloudy SCT030 77 77     100%   79 29.9 29.89      
Jul 21 00:56   10 Mostly Cloudy SCT036 BKN050 BKN110 78 76     93%   80 29.92 29.92      
Jul 20 23:56   10 Cloudy SCT044 OVC100 78 76     93%   80 29.93 29.92      
Jul 20 22:56   10 Mostly Cloudy BKN100 79 76     90%   83 29.94 29.93      
Jul 20 21:56   10 Mostly Cloudy BKN110 78 77     96%   81 29.95 29.94      
Jul 20 20:56   10 Partly Cloudy SCT120 79 77     94%   83 29.93 29.93      
Jul 20 19:56   10 Clear CLR 83 76     79%   91 29.93 29.93      
Jul 20 18:56   10 Clear CLR 86 76     72%   96 29.92 29.92      
Jul 20 17:56   10 Clear CLR 89 75     63%   99 29.91 29.9      
Jul 20 16:56   10 Clear CLR 90 74     59%   99 29.92 29.92      
Jul 20 15:56   10 Clear CLR 89 74     61%   98 29.94 29.93      
Jul 20 14:56   10 Clear CLR 89 73     59%   97 29.95 29.94      
Jul 20 13:56   8 Mostly Cloudy BKN035 88 74     63%   97 29.98 29.97      
Jul 20 12:56   10 Partly Cloudy SCT034 87 75     68%   97 30.01 30      
Jul 20 11:56   10 Mostly Cloudy SCT028 BKN036 85 75     72%   93 30.01 30      
Jul 20 10:56   10 Mostly Clear FEW026 84 75     74%   92 30.02 30.01      
Jul 20 10:40   10 Partly Cloudy SCT028 84 75     74%   92 30.02        
Jul 20 09:56   10 Mostly Cloudy BKN020 BKN028 82 75     79%   89 30.03 30.02      
Jul 20 09:20   10 Mostly Cloudy BKN016 81 75     84%   86 30.03        
Jul 20 08:56   10 Clear CLR 80 75     85%   85 30.03 30.02      
Jul 20 08:36   10 Partly Cloudy SCT012 79 73     84%   82 30.03        
Jul 20 08:14   10 Mostly Cloudy BKN012 75 73     94%   77 30.03        
Jul 20 07:56   10 Clear CLR 76 74     94%   78 30.02 30.02      
Jul 20 06:04   7 Clear CLR 70 70     100%     29.99        
Jul 20 05:56   2 Fog/Mist CLR 69 69     100%     29.99 29.98      
Jul 20 05:45   1.5 Fog/Mist CLR 70 70     100%     29.98        
Jul 20 04:56   7 Clear CLR 69 69     100%     29.98 29.97      
Jul 20 03:56   8 Clear CLR 70 70     100%     29.97 29.96      
Jul 20 02:56   9 Clear CLR 71 71     100%   73 29.96 29.95      
May 15 08:56 SE 6 10 Mostly Clear FEW060 77 68     74%   78 30.02 30.01      
May 15 05:56 NNW 6 4 Fog/Mist CLR 65 65     100%     30.01 30      
May 15 03:56 Calm 8 Mostly Clear FEW070 67 67     100%     29.99 29.98      
May 14 13:56 N 5 10 Clear CLR 91 65     42%   93 30.02 30.01      
May 14 11:56 NNE 9 10 Mostly Clear FEW060 87 65     48%   89 30.05 30.04      
May 13 18:56 Calm 10 Clear CLR 85 67     55%   88 30.03 30.03      
May 13 17:56 WNW 6 10 Clear CLR 88 64     45%   89 30.03 30.03      
May 13 03:56 Calm 2 Fog/Mist CLR 58 58     100%     30.09 30.09      
May 13 00:56 Calm 5 Fog/Mist CLR 61 61     100%     30.09 30.09      
May 12 04:56 Calm 8 Clear CLR 59 59     100%     30.14 30.14      
May 12 03:56 W 3 8 Clear CLR 59 59     100%     30.12 30.11      
May 11 20:56 WSW 3 10 Clear CLR 70 66     87%     30.09 30.09      
Jun 12 04:56 Calm 10 Mostly Cloudy FEW028 BKN034 70 69     97%     30.15 30.18      
Jun 11 10:20 Calm 10 Mostly Cloudy BKN021 81 72     74%   85 30.18        
Jun 10 21:56 Calm 10 Clear   70 64     81%     30.11 30.14      
Jun 10 20:56 Calm 10 Clear CLR 74 64     71%   74 30.08 30.11      
Jun 10 03:56 Calm 10 Mostly Clear FEW070 60 60     100%     30.02 30.05      
Jun 08 22:56 Calm 10 Mostly Clear FEW060 62 60     93%     29.93 29.97      
Jun 07 18:56 N 9 10 Clear CLR 77 55     47%   77 29.85 29.89      
Jun 07 15:56 NNE 14 10 Clear CLR 82 54     38%   81 29.83 29.86      
Jun 07 13:56 N 10 10 Clear CLR 81 60     49%   82 29.83 29.87      
Jun 07 11:56 NE 10 10 Clear CLR 78 62     58%   78 29.85        
Jun 06 04:23 Calm 7 Partly Cloudy SCT003 70 70     100%     29.8        
Jun 05 23:56 Calm 10 Light Rain CLR 71 70     96%   72 29.84 29.86 0